Clinton, MO

11:08 AM CDT on April 25, 2017 (GMT -0500)
Clinton Memorial

Weather History for KGLY - December, 2013

Change the Weather History Date:

Thursday, December 5, 2013

  Actual Average (KSZL) Record (KSZL)
Temperature  
Mean Temperature 26 °F -  
Max Temperature 30 °F 45 °F 73 °F (2001)
Min Temperature 23 °F 29 °F 8 °F (2005)
Degree Days  
Heating Degree Days 38    
Moisture  
Dew Point 13 °F    
Average Humidity 62    
Maximum Humidity 75    
Minimum Humidity 51    
Precipitation  
Precipitation 0.00 in - - ()
Sea Level Pressure  
Sea Level Pressure 30.23 in    
Wind  
Wind Speed 12 mph (NNW)    
Max Wind Speed 16 mph    
Max Gust Speed 21 mph    
Visibility 10 miles    
Events Rain    
Averages and records for this station are not official NWS values.
T = Trace of Precipitation, MM = Missing Value Source: NWS Daily Summary

Daily Weather History Graph

Daily Weather History Graph

Search for Another Location

Airport or City:

Trip Planner

Search our weather history database for the weather conditions in past years. The results will help you decide how hot, cold, wet, or windy it might be!

Date:

Astronomy

Dec. 05, 2013 Rise Set
Actual Time 7:16 AM CST 4:54 PM CST
Civil Twilight 6:47 AM CST 5:23 PM CST
Nautical Twilight 6:14 AM CST 5:56 PM CST
Astronomical Twilight 5:42 AM CST 6:28 PM CST
Moon 9:38 AM CST (12/5) 8:14 PM CST (12/5)
Length of Visible Light 10h 35m
Length of Day
9h 37m
Waxing Crescent, 11% of the Moon is Illuminated
Dec 5
Waxing Crescent
Dec 9
First Quarter
Dec 17
Full
Dec 25
Last Quarter
Jan 1
New

Hourly Weather History & Observations

Time (CST) Temp. Windchill Dew Point Humidity Pressure Visibility Wind Dir Wind Speed Gust Speed Precip Events Conditions
12:15 AM 30.2 °F 20.8 °F 23.0 °F 75% 30.02 in 10.0 mi WNW 11.5 mph - N/A   Overcast
12:35 AM 28.4 °F 18.0 °F 21.2 °F 74% 30.04 in 10.0 mi WNW 12.7 mph - N/A   Overcast
12:55 AM 28.4 °F 18.5 °F 21.2 °F 74% 30.03 in 10.0 mi WNW 11.5 mph - N/A   Overcast
1:15 AM 28.4 °F 17.0 °F 19.4 °F 69% 30.05 in 10.0 mi NW 15.0 mph 18.4 mph N/A   Overcast
1:35 AM 28.4 °F 20.4 °F 19.4 °F 69% 30.07 in 10.0 mi NW 8.1 mph - N/A   Partly Cloudy
1:55 AM 28.4 °F 19.1 °F 19.4 °F 69% 30.08 in 10.0 mi WNW 10.4 mph - N/A   Scattered Clouds
2:15 AM 28.4 °F 18.5 °F 19.4 °F 69% 30.07 in 10.0 mi NW 11.5 mph 17.3 mph N/A   Mostly Cloudy
2:35 AM 28.4 °F 18.5 °F 17.6 °F 64% 30.07 in 10.0 mi NW 11.5 mph - N/A   Mostly Cloudy
2:55 AM 28.4 °F 16.6 °F 17.6 °F 64% 30.08 in 10.0 mi NNW 16.1 mph - N/A   Overcast
3:15 AM 28.4 °F 17.5 °F 17.6 °F 64% 30.10 in 10.0 mi NNW 13.8 mph - N/A   Overcast
3:35 AM 28.4 °F 17.0 °F 17.6 °F 64% 30.11 in 10.0 mi NNW 15.0 mph 20.7 mph N/A   Overcast
3:55 AM 26.6 °F 16.2 °F 17.6 °F 69% 30.13 in 10.0 mi NNW 11.5 mph - N/A   Overcast
4:15 AM 26.6 °F 14.3 °F 17.6 °F 69% 30.13 in 10.0 mi NW 16.1 mph - N/A   Overcast
4:35 AM 26.6 °F 14.3 °F 15.8 °F 64% 30.14 in 10.0 mi NNW 16.1 mph - N/A   Overcast
4:55 AM 26.6 °F 15.2 °F 15.8 °F 64% 30.14 in 10.0 mi NW 13.8 mph - N/A   Overcast
5:15 AM 24.8 °F 12.9 °F 17.6 °F 74% 30.16 in 10.0 mi NNW 13.8 mph - N/A   Overcast
5:35 AM 23.0 °F 9.6 °F 15.8 °F 74% 30.17 in 10.0 mi NW 16.1 mph - N/A   Scattered Clouds
5:55 AM 23.0 °F 10.1 °F 15.8 °F 74% 30.18 in 10.0 mi NNW 15.0 mph - N/A   Scattered Clouds
6:15 AM 23.0 °F 11.7 °F 14.0 °F 68% 30.19 in 10.0 mi NNW 11.5 mph - N/A   Partly Cloudy
6:35 AM 23.0 °F 13.1 °F 14.0 °F 68% 30.20 in 10.0 mi NNW 9.2 mph - N/A   Clear
6:55 AM 23.0 °F 13.1 °F 14.0 °F 68% 30.21 in 10.0 mi NNW 9.2 mph - N/A   Clear
7:15 AM 23.0 °F 13.9 °F 14.0 °F 68% 30.21 in 10.0 mi NNW 8.1 mph - N/A   Clear
7:35 AM 23.0 °F 13.9 °F 14.0 °F 68% 30.22 in 10.0 mi NNW 8.1 mph - N/A   Clear
7:55 AM 23.0 °F 13.1 °F 14.0 °F 68% 30.23 in 10.0 mi NNW 9.2 mph - N/A   Clear
8:15 AM 23.0 °F 12.4 °F 14.0 °F 68% 30.22 in 10.0 mi North 10.4 mph - N/A   Clear
8:35 AM 23.0 °F 11.1 °F 14.0 °F 68% 30.22 in 10.0 mi North 12.7 mph - N/A   Clear
8:55 AM 23.0 °F 12.4 °F 14.0 °F 68% 30.23 in 10.0 mi NNW 10.4 mph - N/A   Clear
9:15 AM 24.8 °F 15.3 °F 14.0 °F 64% 30.24 in 10.0 mi NNW 9.2 mph - N/A   Clear
9:35 AM 24.8 °F 13.4 °F 12.2 °F 59% 30.23 in 10.0 mi North 12.7 mph 16.1 mph N/A   Clear
9:55 AM 24.8 °F 12.4 °F 12.2 °F 59% 30.25 in 10.0 mi North 15.0 mph - N/A   Clear
10:15 AM 24.8 °F 14.0 °F 12.2 °F 59% 30.24 in 10.0 mi NNW 11.5 mph - N/A   Clear
10:35 AM 24.8 °F 14.0 °F 12.2 °F 59% 30.26 in 10.0 mi North 11.5 mph - N/A   Clear
10:55 AM 24.8 °F 13.4 °F 10.4 °F 54% 30.26 in 10.0 mi North 12.7 mph - N/A   Clear
11:15 AM 26.6 °F 15.7 °F 12.2 °F 55% 30.27 in 10.0 mi NNW 12.7 mph - N/A   Clear
11:35 AM 24.8 °F 12.4 °F 12.2 °F 59% 30.26 in 10.0 mi North 15.0 mph - N/A   Clear
11:55 AM 24.8 °F 13.4 °F 10.4 °F 54% 30.24 in 10.0 mi North 12.7 mph 16.1 mph N/A   Clear
12:15 PM 24.8 °F 13.4 °F 10.4 °F 54% 30.25 in 10.0 mi North 12.7 mph - N/A   Clear
12:35 PM 26.6 °F 16.8 °F 10.4 °F 51% 30.26 in 10.0 mi North 10.4 mph - N/A   Clear
12:55 PM 24.8 °F 12.9 °F 10.4 °F 54% 30.25 in 10.0 mi NNW 13.8 mph - N/A   Clear
1:15 PM 26.6 °F 15.7 °F 10.4 °F 51% 30.24 in 10.0 mi North 12.7 mph - N/A   Clear
1:35 PM 24.8 °F 13.4 °F 10.4 °F 54% 30.23 in 10.0 mi North 12.7 mph - N/A   Clear
1:55 PM 26.6 °F 16.8 °F 10.4 °F 51% 30.22 in 10.0 mi NNW 10.4 mph - N/A   Clear
2:15 PM 24.8 °F 15.3 °F 10.4 °F 54% 30.22 in 10.0 mi North 9.2 mph - N/A   Clear
2:35 PM 24.8 °F 14.0 °F 10.4 °F 54% 30.22 in 10.0 mi NNW 11.5 mph - N/A   Clear
2:55 PM 24.8 °F 14.6 °F 10.4 °F 54% 30.23 in 10.0 mi NNW 10.4 mph - N/A   Clear
3:15 PM 24.8 °F 15.3 °F 10.4 °F 54% 30.25 in 10.0 mi NNW 9.2 mph - N/A   Clear
3:35 PM 24.8 °F 16.1 °F 10.4 °F 54% 30.26 in 10.0 mi NNW 8.1 mph - N/A   Clear
3:55 PM 23.0 °F 13.9 °F 10.4 °F 59% 30.26 in 10.0 mi North 8.1 mph - N/A   Clear
4:15 PM 23.0 °F 13.9 °F 10.4 °F 59% 30.27 in 10.0 mi North 8.1 mph - N/A   Clear
4:35 PM 23.0 °F 13.1 °F 10.4 °F 59% 30.28 in 10.0 mi North 9.2 mph - N/A   Clear
4:55 PM 23.0 °F 13.1 °F 10.4 °F 59% 30.28 in 10.0 mi NNW 9.2 mph - N/A   Clear
5:15 PM 23.0 °F 13.1 °F 12.2 °F 63% 30.28 in 10.0 mi North 9.2 mph - N/A   Clear
5:35 PM 23.0 °F 12.4 °F 12.2 °F 63% 30.28 in 10.0 mi North 10.4 mph - N/A   Clear
5:55 PM 23.0 °F 12.4 °F 12.2 °F 63% 30.29 in 10.0 mi North 10.4 mph - N/A   Clear
6:15 PM 23.0 °F 12.4 °F 10.4 °F 59% 30.29 in 10.0 mi North 10.4 mph - N/A   Clear
6:35 PM 23.0 °F 11.7 °F 10.4 °F 59% 30.28 in 10.0 mi North 11.5 mph - N/A   Clear
6:55 PM 23.0 °F 11.7 °F 10.4 °F 59% 30.30 in 10.0 mi North 11.5 mph - N/A   Scattered Clouds
7:15 PM 23.0 °F 13.1 °F 10.4 °F 59% 30.30 in 10.0 mi North 9.2 mph - N/A   Overcast
7:35 PM 23.0 °F 11.7 °F 12.2 °F 63% 30.32 in 10.0 mi North 11.5 mph - N/A   Overcast
7:55 PM 23.0 °F 12.4 °F 10.4 °F 59% 30.31 in 10.0 mi North 10.4 mph - N/A   Overcast
8:15 PM 23.0 °F 11.7 °F 10.4 °F 59% 30.30 in 10.0 mi North 11.5 mph - N/A   Overcast
8:35 PM 23.0 °F 12.4 °F 12.2 °F 63% 30.32 in 10.0 mi North 10.4 mph - N/A   Overcast
8:55 PM 23.0 °F 11.7 °F 10.4 °F 59% 30.31 in 10.0 mi NNE 11.5 mph - N/A   Overcast
9:15 PM 23.0 °F 13.1 °F 10.4 °F 59% 30.32 in 10.0 mi North 9.2 mph - N/A   Mostly Cloudy
9:35 PM 23.0 °F 12.4 °F 12.2 °F 63% 30.31 in 10.0 mi North 10.4 mph - N/A   Scattered Clouds
9:55 PM 23.0 °F 11.7 °F 12.2 °F 63% 30.32 in 10.0 mi North 11.5 mph - N/A   Partly Cloudy
10:15 PM 23.0 °F 11.1 °F 12.2 °F 63% 30.32 in 10.0 mi North 12.7 mph - N/A   Mostly Cloudy
10:35 PM 23.0 °F 10.6 °F 12.2 °F 63% 30.32 in 10.0 mi North 13.8 mph - N/A   Overcast
10:55 PM 23.0 °F 11.1 °F 12.2 °F 63% 30.32 in 10.0 mi North 12.7 mph - N/A   Overcast
11:15 PM 23.0 °F 11.7 °F 12.2 °F 63% 30.34 in 10.0 mi North 11.5 mph - N/A   Overcast
11:35 PM 23.0 °F 11.7 °F 12.2 °F 63% 30.35 in 10.0 mi North 11.5 mph - N/A   Overcast
11:55 PM 23.0 °F 10.6 °F 10.4 °F 59% 30.35 in 10.0 mi North 13.8 mph - N/A Rain Light Freezing Rain